Location: Recife
(8.0585°S, 34.8848°W)
Time: 12:29:42
(UTC-03:00)

Tiros 1 - Pass Details

Date: 16 April 2026
Orbit: 618 x 648 km, 48.4° (Epoch: 11 May)

Event Time Altitude Azimuth Distance (km) Brightness Sun altitude
Rises 18:01:44 0° 349° (N) 2,935 10.8 -11.8°
Reaches altitude 10° 18:04:40 10° 8° (N) 2,032 9.7 -12.5°
Maximum altitude 18:07:56 19° 52° (NE) 1,541 8.7 -13.3°
Enters shadow 18:09:08 17° 72° (ENE) 1,617 8.7 -13.6°
Drops below altitude 10° 18:11:14 10° 97° (E) 2,043 - -14.1°
Sets 18:14:09 0° 115° (ESE) 2,956 - -14.8°
